Regional Weather Roundup
Issued by NWS

Home | Current Version | Previous Version | Graphics & Text | Print | Product List | Glossary On
Versions: 1 2 3 4 5 6 7 8 9 10 11 12 13 14 15 16 17 18 19 20 21 22 23 24 25 26 27 28 29 30 31 32 33 34 35 36 37 38 39 40 41 42 43 44 45 46 47 48 49 50
548
ASUS43 KLMK 250310
RWRKY
KENTUCKY REGIONAL WEATHER ROUNDUP
NATIONAL WEATHER SERVICE LOUISVILLE KY
1000 PM EST FRI NOV 24 2017

NOTE "FAIR" INDICATES FEW OR NO CLOUDS BELOW 12,000 FEET
WITH NO SIGNIFICANT WEATHER AND/OR OBSTRUCTIONS TO VISIBILITY.

KYZ001>023-026-027-061>063-070>075-250400-
WESTERN AND SOUTH CENTRAL KENTUCKY

CITY           SKY/WX    TMP DP  RH WIND       PRES   REMARKS
PADUCAH        MOCLDY    55  31  39 S7G17     29.80R
HENDERSON      PTCLDY    52  33  48 SW15      29.77S
OWENSBORO      CLEAR     49  31  49 S13       29.79S
HOPKINSVILLE   CLEAR     53  25  34 S12       29.84F
BOWLING GREEN  CLEAR     52  31  44 S12       29.85F
GLASGOW        CLEAR     49  32  50 S7        29.85F
$$

KYZ024-025-028>034-038-045-046-053-250400-
NORTH CENTRAL KENTUCKY

CITY           SKY/WX    TMP DP  RH WIND       PRES   REMARKS
LOUISVILLE/SDF PTCLDY    54  25  32 S9        29.78F
LOUISVILLE/LOU CLEAR     49  28  44 S9        29.79F
FORT KNOX      CLEAR     49  26  41 S10       29.78F
$$

KYZ035>037-039>044-047>052-055>060-089>105-250400-
NORTHEAST KENTUCKY

CITY           SKY/WX    TMP DP  RH WIND       PRES   REMARKS
LEXINGTON      CLOUDY    48  26  42 S12       29.82F
COVINGTON      MOCLDY    50  27  40 S13       29.74F
FRANKFORT      CLEAR     50  24  36 S12       29.80F
$$

KYZ054-064>069-076>088-106>120-250400-
SOUTHEAST KENTUCKY

CITY           SKY/WX    TMP DP  RH WIND       PRES   REMARKS
JACKSON        PTCLDY    51  31  46 SW5       29.87S
LONDON         MOCLDY    50  35  56 S5        29.90S
SOMERSET       CLOUDY    43  34  70 S3        29.91S
MIDDLESBORO    CLOUDY    41  37  86 CALM      29.94S
MONTICELLO     NOT AVBL
$$





USA.gov is the U.S. government's official web portal to all federal, state and local government web resources and services.